This is the latest recevied weather packets stored in our database for station/object EA7KZ-10. If no packets are shown the sender has not sent any weather packets the latest 10 day(s).
| Time | Temp. | Humidity | Pressure | Rain* | Wind** | Luminosity | Snow |
|---|---|---|---|---|---|---|---|
| 1778161481 | 18.33° C | 55% | 1010.7 hPa | - | - | - | - |
| 1778160881 | 17.78° C | 53% | 1011.1 hPa | - | - | - | - |
| 1778158801 | 19.44° C | 43% | 1010.2 hPa | - | - | - | - |
| 1778158200 | 20° C | 40% | 1009.9 hPa | - | - | - | - |
| 1778157601 | 20° C | 41% | 1009.8 hPa | - | - | - | - |
| 1778157001 | 19.44° C | 41% | 1010 hPa | - | - | - | - |
| 1778156401 | 19.44° C | 42% | 1010.1 hPa | - | - | - | - |
| 1778155801 | 19.44° C | 42% | 1010.2 hPa | - | - | - | - |
| 1778155201 | 19.44° C | 42% | 1010.3 hPa | - | - | - | - |
| 1778154600 | 19.44° C | 43% | 1010.5 hPa | - | - | - | - |
| 1778154000 | 19.44° C | 43% | 1010.6 hPa | - | - | - | - |
| 1778153401 | 19.44° C | 43% | 1010.6 hPa | - | - | - | - |
| 1778152800 | 19.44° C | 43% | 1010.8 hPa | - | - | - | - |
| 1778152201 | 19.44° C | 43% | 1010.9 hPa | - | - | - | - |
| 1778151601 | 19.44° C | 43% | 1011 hPa | - | - | - | - |
| 1778151000 | 19.44° C | 44% | 1010.9 hPa | - | - | - | - |
| 1778150400 | 19.44° C | 43% | 1011 hPa | - | - | - | - |
| 1778149800 | 19.44° C | 44% | 1010.8 hPa | - | - | - | - |
| 1778149201 | 19.44° C | 44% | 1010.9 hPa | - | - | - | - |
| 1778148600 | 19.44° C | 45% | 1011.1 hPa | - | - | - | - |
| 1778148001 | 19.44° C | 45% | 1011.2 hPa | - | - | - | - |
| 1778147401 | 18.89° C | 47% | 1011.4 hPa | - | - | - | - |
| 1778146801 | 18.89° C | 47% | 1011.3 hPa | - | - | - | - |
| 1778146200 | 18.33° C | 48% | 1011.6 hPa | - | - | - | - |
| 1778145600 | 17.78° C | 48% | 1011.5 hPa | - | - | - | - |
* Rain since midnight (hover to see other rain measurements)
** Current wind speed in m/s (hover to see current wind gust speed)